Language: 


Des rapports , des résumés tant et plus, au choix de chacun....


Données statistiques de la station
Quotidien Rapport Mai 7, 2017 Unités:  Anglais    Métrique   les deux
« Précédent Jour
Suivant Jour »
Quotidien Hebdomadaire Mensuel Annuel Actuel
  Haut: Bas: Moyen:
Température: 56.1 °F 49.6 °F 52.5 °F
Pt de rosée: 51.8 °F 44.6 °F 48.9 °F
Humidité: 96 % 75 % 87 %
Vitesse du vent: 12.8 mph 0 mph 5 mph
Rafales: 15.4 mph - -
Vent:- - WNW
Pression: 30.2 in 29.8 in -
Précipitation: 0 in    
Historical Graphs
 
 
Données statistiques pour Mai 7, 2017
Heure Température Point de rosée Pression Vent Vitesse du vent Refales Humidité Pluie (taux horaire)
00:01 56.1 °F 51.8 °F 29.8 in NNW 6 mph 8.5 mph 82 % 0 in
00:06 55.9 °F 51.8 °F 29.8 in NW 4.7 mph 8.7 mph 82 % 0 in
00:11 55.8 °F 51.8 °F 29.8 in NNW 3.4 mph 11 mph 83 % 0 in
00:16 55.6 °F 50 °F 29.8 in NNW 6 mph 12.3 mph 83 % 0 in
00:21 55.6 °F 51.8 °F 29.8 in NW 5.6 mph 12.3 mph 84 % 0 in
00:26 55.4 °F 51.8 °F 29.8 in NNW 6 mph 10.7 mph 84 % 0 in
00:31 55.2 °F 51.8 °F 29.8 in NW 2.7 mph 10.7 mph 85 % 0 in
00:36 55 °F 51.8 °F 29.9 in NNW 7.6 mph 10.7 mph 86 % 0 in
00:39 55 °F 51.8 °F 29.9 in WNW 4.3 mph 10.7 mph 86 % 0 in
00:44 54.9 °F 51.8 °F 29.9 in NNW 6.5 mph 10.7 mph 86 % 0 in
00:49 54.9 °F 51.8 °F 29.9 in NE 5.4 mph 10.7 mph 87 % 0 in
00:54 54.7 °F 51.8 °F 29.9 in NNW 12.8 mph 12.8 mph 87 % 0 in
00:59 54.5 °F 51.8 °F 29.9 in North 5.6 mph 12.8 mph 88 % 0 in
01:04 54.5 °F 51.8 °F 29.9 in NE 6.3 mph 12.1 mph 88 % 0 in
01:09 54.3 °F 51.8 °F 29.9 in NNW 5.4 mph 12.1 mph 89 % 0 in
01:14 54.1 °F 51.8 °F 29.9 in NNW 7.6 mph 9.6 mph 90 % 0 in
01:19 54.1 °F 51.8 °F 29.9 in North 8.1 mph 11 mph 90 % 0 in
01:24 54 °F 51.8 °F 29.9 in North 3.4 mph 11 mph 90 % 0 in
01:29 54 °F 51.8 °F 29.9 in NNW 7.4 mph 10.5 mph 91 % 0 in
01:34 53.8 °F 51.8 °F 29.9 in NNW 4.9 mph 9.6 mph 91 % 0 in
01:39 53.8 °F 51.8 °F 29.9 in North 12.1 mph 13.2 mph 92 % 0 in
01:44 53.6 °F 51.8 °F 29.9 in North 3.1 mph 13.2 mph 92 % 0 in
01:50 53.6 °F 51.8 °F 29.9 in NNW 5.4 mph 10.5 mph 92 % 0 in
01:55 53.6 °F 51.8 °F 29.8 in North 3.4 mph 10.5 mph 92 % 0 in
02:00 53.6 °F 51.8 °F 29.8 in West 7.4 mph 8.9 mph 93 % 0 in
02:05 53.4 °F 51.8 °F 29.8 in NNW 7.8 mph 10.3 mph 93 % 0 in
02:10 53.4 °F 51.8 °F 29.9 in NW 7.4 mph 11 mph 93 % 0 in
02:15 53.2 °F 51.8 °F 29.9 in NNE 7.6 mph 11 mph 93 % 0 in
02:20 53.2 °F 51.8 °F 29.9 in NNW 5.4 mph 13 mph 93 % 0 in
02:25 53.2 °F 51.8 °F 29.9 in North 6.5 mph 13 mph 93 % 0 in
02:30 53.2 °F 51.8 °F 29.9 in NNW 8.5 mph 12.5 mph 94 % 0 in
02:35 53.1 °F 51.8 °F 29.9 in NNW 8.7 mph 12.5 mph 94 % 0 in
02:40 53.1 °F 51.8 °F 29.9 in North 7.8 mph 10.3 mph 94 % 0 in
02:45 53.1 °F 51.8 °F 29.9 in NNW 6.5 mph 9.8 mph 94 % 0 in
02:50 53.1 °F 51.8 °F 29.9 in NNW 2 mph 9.8 mph 94 % 0 in
02:55 53.1 °F 51.8 °F 29.9 in North 4.3 mph 9.2 mph 94 % 0 in
03:00 53.1 °F 51.8 °F 29.9 in NNE 7.4 mph 7.8 mph 94 % 0 in
03:05 53.1 °F 51.8 °F 29.9 in North 1.1 mph 8.5 mph 94 % 0 in
03:10 53.1 °F 51.8 °F 29.9 in North 5.6 mph 8.5 mph 94 % 0 in
03:15 53.1 °F 51.8 °F 29.9 in NE 5.6 mph 11.2 mph 94 % 0 in
03:20 52.9 °F 51.8 °F 29.9 in NW 9.4 mph 11.2 mph 94 % 0 in
03:26 52.9 °F 51.8 °F 29.9 in NNE 3.1 mph 9.4 mph 95 % 0 in
03:31 52.9 °F 51.8 °F 29.9 in NW 2.7 mph 8.7 mph 95 % 0 in
03:36 52.9 °F 51.8 °F 29.9 in NE 2.2 mph 8.7 mph 95 % 0 in
03:41 52.9 °F 51.8 °F 29.9 in NNE 8.5 mph 8.5 mph 95 % 0 in
03:46 52.9 °F 51.8 °F 29.9 in North 2.7 mph 8.5 mph 95 % 0 in
03:51 52.9 °F 51.8 °F 29.9 in WNW 3.8 mph 9.6 mph 95 % 0 in
03:56 52.9 °F 51.8 °F 29.9 in North 3.8 mph 9.6 mph 95 % 0 in
04:01 52.9 °F 51.8 °F 29.9 in North 5.6 mph 10.1 mph 96 % 0 in
04:06 52.9 °F 51.8 °F 29.9 in NW 4.5 mph 10.1 mph 96 % 0 in
04:11 52.9 °F 51.8 °F 29.9 in WNW 4.9 mph 10.5 mph 96 % 0 in
04:16 52.7 °F 51.8 °F 29.9 in NW 6.3 mph 10.5 mph 96 % 0 in
04:21 52.9 °F 51.8 °F 29.9 in North 6.3 mph 10.5 mph 96 % 0 in
04:26 52.7 °F 51.8 °F 29.9 in North 3.8 mph 10.1 mph 96 % 0 in
04:31 52.7 °F 51.8 °F 29.9 in NW 6.5 mph 10.1 mph 96 % 0 in
04:36 52.7 °F 51.8 °F 29.9 in North 3.6 mph 8.5 mph 96 % 0 in
04:41 52.7 °F 51.8 °F 29.9 in NNW 3.4 mph 10.3 mph 96 % 0 in
04:46 52.7 °F 51.8 °F 29.9 in North 3.1 mph 10.3 mph 96 % 0 in
04:51 52.7 °F 51.8 °F 29.9 in NW 3.1 mph 11.2 mph 96 % 0 in
04:56 52.7 °F 51.8 °F 29.9 in North 8.7 mph 11.2 mph 96 % 0 in
05:01 52.7 °F 51.8 °F 29.9 in NW 7.8 mph 10.5 mph 96 % 0 in
05:06 52.5 °F 51.8 °F 29.9 in NNW 10.1 mph 10.1 mph 96 % 0 in
05:11 52.5 °F 51.8 °F 29.9 in NW 6.5 mph 10.1 mph 96 % 0 in
05:16 52.5 °F 51.8 °F 29.9 in NNW 5.8 mph 10.1 mph 96 % 0 in
05:21 52.5 °F 51.8 °F 29.9 in NNE 3.4 mph 10.7 mph 96 % 0 in
05:26 52.5 °F 51.8 °F 29.9 in NNW 5.6 mph 12.1 mph 96 % 0 in
05:31 52.5 °F 51.8 °F 29.9 in WNW 5.8 mph 12.1 mph 96 % 0 in
05:36 52.5 °F 51.8 °F 29.9 in NW 5.6 mph 11.4 mph 96 % 0 in
05:41 52.5 °F 51.8 °F 29.9 in North 3.8 mph 10.7 mph 96 % 0 in
05:46 52.3 °F 51.8 °F 29.9 in North 3.4 mph 12.8 mph 96 % 0 in
05:51 52.3 °F 51.8 °F 29.9 in NNE 7.6 mph 12.8 mph 96 % 0 in
05:56 52.3 °F 51.8 °F 29.9 in NNW 3.6 mph 15.4 mph 96 % 0 in
06:01 52.3 °F 51.8 °F 29.9 in NNW 2.5 mph 15.4 mph 96 % 0 in
06:06 52.3 °F 51.8 °F 29.9 in NNW 3.8 mph 12.8 mph 96 % 0 in
06:12 52.3 °F 51.8 °F 29.9 in North 5.4 mph 12.8 mph 96 % 0 in
06:16 52.2 °F 51.8 °F 29.9 in NNW 5.4 mph 9.8 mph 96 % 0 in
06:22 52.2 °F 51.8 °F 29.9 in North 5.8 mph 9.6 mph 96 % 0 in
06:27 52.2 °F 51.8 °F 29.9 in NNE 2.9 mph 11.4 mph 96 % 0 in
06:32 52.2 °F 51.8 °F 29.9 in NNE 7.4 mph 11.4 mph 96 % 0 in
06:37 52.2 °F 51.8 °F 29.9 in NNW 3.1 mph 9.6 mph 96 % 0 in
06:42 52.2 °F 51.8 °F 29.9 in North 7.8 mph 9.8 mph 96 % 0 in
06:47 52.2 °F 51.8 °F 29.9 in North 10.5 mph 12.5 mph 96 % 0 in
06:52 52.2 °F 51.8 °F 29.9 in North 5.8 mph 13.6 mph 96 % 0 in
06:57 52.2 °F 51.8 °F 29.9 in NNW 6.9 mph 13.6 mph 96 % 0 in
07:02 52.2 °F 51.8 °F 29.9 in NNE 7.6 mph 8.7 mph 96 % 0 in
07:03 52.2 °F 51.8 °F 29.9 in NNE 5.8 mph 8.7 mph 96 % 0 in
07:08 52.2 °F 51.8 °F 29.9 in NNW 2.2 mph 8.9 mph 96 % 0 in
07:13 52.3 °F 51.8 °F 29.9 in NNW 6 mph 9.4 mph 96 % 0 in
07:18 52.3 °F 51.8 °F 29.9 in NNW 3.6 mph 13.2 mph 96 % 0 in
07:23 52.3 °F 51.8 °F 29.9 in NNW 8.7 mph 13.2 mph 95 % 0 in
07:28 52.3 °F 51.8 °F 29.9 in North 3.6 mph 13 mph 95 % 0 in
07:33 52.5 °F 51.8 °F 29.9 in North 2.2 mph 13 mph 95 % 0 in
07:38 52.5 °F 51.8 °F 29.9 in ENE 5.8 mph 12.3 mph 95 % 0 in
07:43 52.5 °F 51.8 °F 29.9 in NNE 7.6 mph 8.9 mph 95 % 0 in
07:48 52.5 °F 51.8 °F 29.9 in NNW 5.8 mph 11 mph 95 % 0 in
07:53 52.5 °F 51.8 °F 30 in North 5.6 mph 11 mph 95 % 0 in
07:58 52.5 °F 51.8 °F 30 in NNW 8.7 mph 8.9 mph 95 % 0 in
08:03 52.5 °F 51.8 °F 30 in NNW 2.7 mph 8.7 mph 95 % 0 in
08:08 52.5 °F 51.8 °F 30 in NNW 5.6 mph 8.5 mph 95 % 0 in
08:13 52.5 °F 51.8 °F 30 in NE 3.8 mph 9.6 mph 95 % 0 in
08:18 52.3 °F 50 °F 30 in NNE 2.7 mph 9.6 mph 94 % 0 in
08:23 52.3 °F 50 °F 30 in NNW 3.8 mph 9.4 mph 94 % 0 in
08:28 52.3 °F 50 °F 30 in North 4.9 mph 9.4 mph 94 % 0 in
08:33 52.5 °F 50 °F 30 in NNW 6.3 mph 8.7 mph 94 % 0 in
08:38 52.5 °F 50 °F 30 in North 5.8 mph 9.2 mph 94 % 0 in
08:43 52.5 °F 50 °F 30 in NNW 4 mph 9.2 mph 94 % 0 in
08:48 52.5 °F 50 °F 30 in North 5.8 mph 8.5 mph 94 % 0 in
08:52 52.5 °F 50 °F 30 in North 4.3 mph 7.8 mph 94 % 0 in
08:58 52.5 °F 50 °F 30 in NE 5.4 mph 7.8 mph 94 % 0 in
09:03 52.5 °F 50 °F 30 in NW 8.9 mph 10.1 mph 94 % 0 in
09:08 52.5 °F 50 °F 30 in NNW 2.5 mph 10.3 mph 94 % 0 in
09:13 52.5 °F 50 °F 30 in North 4.3 mph 10.3 mph 94 % 0 in
09:18 52.5 °F 50 °F 30 in NNW 3.6 mph 8.5 mph 94 % 0 in
09:23 52.5 °F 50 °F 30 in North 5.6 mph 9.6 mph 94 % 0 in
09:28 52.5 °F 50 °F 30 in North 4.9 mph 9.6 mph 94 % 0 in
09:33 52.5 °F 50 °F 30 in NNW 3.6 mph 10.1 mph 94 % 0 in
09:38 52.3 °F 50 °F 30 in North 5.6 mph 10.5 mph 93 % 0 in
09:43 52.5 °F 50 °F 30 in NNW 6.5 mph 10.5 mph 93 % 0 in
09:48 52.5 °F 50 °F 30 in North 5.4 mph 9.4 mph 93 % 0 in
09:53 52.5 °F 50 °F 30 in North 3.6 mph 7.4 mph 93 % 0 in
09:58 52.5 °F 50 °F 30 in North 3.6 mph 7.8 mph 93 % 0 in
10:03 52.3 °F 50 °F 30 in ENE 7.6 mph 10.3 mph 93 % 0 in
10:08 52.3 °F 50 °F 30 in North 4.9 mph 10.3 mph 93 % 0 in
10:13 52.3 °F 50 °F 30 in North 4 mph 8.5 mph 93 % 0 in
10:18 52.5 °F 50 °F 30 in North 3.8 mph 7.4 mph 93 % 0 in
10:23 52.5 °F 50 °F 30 in North 4.7 mph 8.7 mph 93 % 0 in
10:28 52.7 °F 51.8 °F 30 in North 5.4 mph 8.7 mph 93 % 0 in
10:33 52.7 °F 51.8 °F 30 in North 3.8 mph 8.7 mph 93 % 0 in
10:38 52.9 °F 51.8 °F 30 in NNW 3.6 mph 8.5 mph 93 % 0 in
10:43 52.9 °F 51.8 °F 30 in North 6.3 mph 8.5 mph 93 % 0 in
10:44 52.9 °F 51.8 °F 30 in NW 6.5 mph 10.1 mph 93 % 0 in
10:49 52.7 °F 50 °F 30 in North 5.6 mph 10.1 mph 92 % 0 in
10:54 52.5 °F 50 °F 30 in NNW 5.6 mph 8.7 mph 92 % 0 in
10:59 52.7 °F 50 °F 30 in North 6 mph 8.7 mph 92 % 0 in
11:04 52.7 °F 50 °F 30 in NNE 6.3 mph 11 mph 92 % 0 in
11:09 52.5 °F 50 °F 30 in North 7.6 mph 12.3 mph 92 % 0 in
11:14 52.3 °F 50 °F 30 in NNW 6.5 mph 12.3 mph 91 % 0 in
11:19 52.7 °F 50 °F 30 in NNE 8.1 mph 10.7 mph 92 % 0 in
11:24 52.7 °F 50 °F 30 in NNW 4 mph 8.7 mph 91 % 0 in
11:29 52.9 °F 50 °F 30 in North 4.3 mph 8.7 mph 91 % 0 in
11:34 52.9 °F 50 °F 30 in NNW 4.9 mph 8.7 mph 90 % 0 in
11:39 52.9 °F 50 °F 30 in NNW 0.9 mph 8.1 mph 90 % 0 in
11:44 52.9 °F 50 °F 30 in NW 4.3 mph 8.1 mph 89 % 0 in
11:49 53.1 °F 50 °F 30 in WSW 2.2 mph 8.1 mph 89 % 0 in
11:54 53.2 °F 50 °F 30 in North 0.9 mph 6 mph 89 % 0 in
11:59 53.2 °F 50 °F 30 in North 6.5 mph 7.8 mph 88 % 0 in
12:04 53.6 °F 50 °F 30 in NNW 2.7 mph 7.8 mph 87 % 0 in
12:09 53.4 °F 50 °F 30 in NW 4.9 mph 7.2 mph 86 % 0 in
12:14 53.4 °F 50 °F 30 in NNW 6.3 mph 8.5 mph 85 % 0 in
12:19 53.4 °F 50 °F 30 in North 5.4 mph 8.7 mph 85 % 0 in
12:24 53.2 °F 48.2 °F 30.1 in ENE 5.4 mph 9.8 mph 85 % 0 in
12:29 53.2 °F 48.2 °F 30.1 in NE 3.1 mph 9.8 mph 85 % 0 in
12:34 53.2 °F 48.2 °F 30.1 in NNW 2.9 mph 8.1 mph 85 % 0 in
12:39 53.4 °F 50 °F 30.1 in North 7.6 mph 9.4 mph 85 % 0 in
12:44 53.4 °F 50 °F 30.1 in NW 5.4 mph 9.4 mph 85 % 0 in
12:49 53.4 °F 50 °F 30.1 in North 7.4 mph 8.7 mph 85 % 0 in
12:54 53.2 °F 48.2 °F 30.1 in North 6.3 mph 10.7 mph 85 % 0 in
12:59 53.1 °F 48.2 °F 30.1 in WNW 5.4 mph 10.7 mph 85 % 0 in
13:04 53.1 °F 48.2 °F 30.1 in NNW 3.6 mph 10.1 mph 84 % 0 in
13:10 52.9 °F 48.2 °F 30.1 in NNE 3.1 mph 7.8 mph 84 % 0 in
13:15 52.9 °F 48.2 °F 30.1 in WNW 4 mph 8.5 mph 84 % 0 in
13:20 52.9 °F 48.2 °F 30.1 in ENE 3.1 mph 8.5 mph 85 % 0 in
13:25 53.1 °F 48.2 °F 30.1 in NNW 7.4 mph 7.4 mph 85 % 0 in
13:30 53.1 °F 48.2 °F 30.1 in WNW 6.3 mph 7.8 mph 85 % 0 in
13:35 52.9 °F 48.2 °F 30.1 in NW 5.8 mph 7.8 mph 84 % 0 in
13:40 52.9 °F 48.2 °F 30.1 in North 3.4 mph 6.3 mph 84 % 0 in
13:45 52.9 °F 48.2 °F 30.1 in North 7.8 mph 8.7 mph 84 % 0 in
13:50 53.1 °F 48.2 °F 30.1 in WNW 3.8 mph 10.1 mph 84 % 0 in
13:55 53.1 °F 48.2 °F 30.1 in North 8.7 mph 10.1 mph 84 % 0 in
14:00 53.1 °F 48.2 °F 30.1 in NW 8.7 mph 9.8 mph 84 % 0 in
14:05 52.9 °F 48.2 °F 30.1 in ENE 4.7 mph 9.8 mph 83 % 0 in
14:10 52.9 °F 48.2 °F 30.1 in NNW 3.8 mph 8.5 mph 83 % 0 in
14:11 52.9 °F 48.2 °F 30.1 in NNW 3.6 mph 8.5 mph 83 % 0 in
14:16 53.2 °F 48.2 °F 30.1 in NNW 7.6 mph 8.1 mph 84 % 0 in
14:22 53.4 °F 48.2 °F 30.1 in NW 2.2 mph 8.1 mph 83 % 0 in
14:27 53.8 °F 48.2 °F 30.1 in NNW 3.8 mph 6.5 mph 83 % 0 in
14:32 53.6 °F 48.2 °F 30.1 in North 5.4 mph 8.1 mph 82 % 0 in
14:37 53.6 °F 48.2 °F 30.1 in NNW 5.4 mph 8.1 mph 81 % 0 in
14:42 53.6 °F 48.2 °F 30.1 in NNE 5.6 mph 9.4 mph 81 % 0 in
14:47 53.6 °F 48.2 °F 30.1 in NW 3.6 mph 9.4 mph 81 % 0 in
14:52 53.8 °F 48.2 °F 30.1 in NNW 7.8 mph 8.1 mph 81 % 0 in
14:57 54.1 °F 48.2 °F 30.1 in NNW 8.5 mph 8.5 mph 81 % 0 in
15:02 54.3 °F 48.2 °F 30.1 in North 7.2 mph 8.5 mph 81 % 0 in
15:07 54.5 °F 50 °F 30.1 in NNW 4.7 mph 10.3 mph 81 % 0 in
15:12 54.5 °F 48.2 °F 30.1 in NNE 5.6 mph 10.3 mph 79 % 0 in
15:17 54.7 °F 48.2 °F 30.1 in NNW 3.4 mph 7.8 mph 79 % 0 in
15:22 54.5 °F 48.2 °F 30.1 in North 4.3 mph 9.8 mph 79 % 0 in
15:27 54.5 °F 48.2 °F 30.1 in North 6 mph 10.5 mph 78 % 0 in
15:32 54.5 °F 48.2 °F 30.1 in WNW 3.8 mph 10.5 mph 78 % 0 in
15:37 54.3 °F 48.2 °F 30.1 in North 3.1 mph 8.1 mph 78 % 0 in
15:42 54 °F 48.2 °F 30.1 in WNW 3.8 mph 8.1 mph 77 % 0 in
15:47 53.8 °F 48.2 °F 30.1 in West 1.6 mph 7.4 mph 78 % 0 in
15:52 53.8 °F 48.2 °F 30.1 in North 5.4 mph 8.7 mph 78 % 0 in
15:57 53.8 °F 48.2 °F 30.1 in WSW 2 mph 8.7 mph 78 % 0 in
16:02 54 °F 48.2 °F 30.1 in WNW 3.4 mph 6.5 mph 77 % 0 in
16:07 53.8 °F 48.2 °F 30.1 in Calm   8.5 mph 77 % 0 in
16:12 53.8 °F 48.2 °F 30.1 in WNW 3.8 mph 9.8 mph 78 % 0 in
16:17 53.6 °F 48.2 °F 30.1 in NNW 5.4 mph 9.8 mph 79 % 0 in
16:22 53.2 °F 46.4 °F 30.1 in North 4.7 mph 8.5 mph 79 % 0 in
16:27 53.6 °F 48.2 °F 30.1 in WNW 4 mph 8.5 mph 80 % 0 in
16:32 54 °F 48.2 °F 30.1 in NNW 2.5 mph 5.8 mph 80 % 0 in
16:37 54 °F 48.2 °F 30.1 in WNW 0.9 mph 5.8 mph 80 % 0 in
16:42 53.6 °F 48.2 °F 30.1 in WNW 1.6 mph 5.6 mph 79 % 0 in
16:47 53.4 °F 48.2 °F 30.1 in North 3.6 mph 7.2 mph 79 % 0 in
16:52 53.2 °F 46.4 °F 30.1 in NNW 2.5 mph 8.5 mph 79 % 0 in
16:54 53.1 °F 46.4 °F 30.1 in NNW 4 mph 8.5 mph 79 % 0 in
16:59 53.1 °F 46.4 °F 30.1 in WNW 3.6 mph 8.5 mph 79 % 0 in
17:04 52.9 °F 46.4 °F 30.1 in WNW 2 mph 8.1 mph 79 % 0 in
17:09 52.9 °F 46.4 °F 30.1 in NW 5.8 mph 8.5 mph 78 % 0 in
17:14 53.1 °F 46.4 °F 30.1 in NE 2.2 mph 8.5 mph 77 % 0 in
17:19 53.1 °F 46.4 °F 30.1 in WSW 9.2 mph 9.2 mph 78 % 0 in
17:24 53.1 °F 46.4 °F 30.1 in NNW 4.3 mph 9.2 mph 76 % 0 in
17:29 52.9 °F 46.4 °F 30.1 in NNW 3.4 mph 8.7 mph 76 % 0 in
17:34 52.9 °F 46.4 °F 30.1 in NNW 3.6 mph 8.1 mph 76 % 0 in
17:39 52.9 °F 46.4 °F 30.1 in NNW 6 mph 6.5 mph 76 % 0 in
17:44 52.9 °F 46.4 °F 30.1 in NE 3.8 mph 6.3 mph 75 % 0 in
17:49 52.9 °F 46.4 °F 30.1 in WNW 4.9 mph 10.5 mph 75 % 0 in
17:54 52.7 °F 46.4 °F 30.1 in NNW 4.3 mph 10.5 mph 75 % 0 in
17:59 52.7 °F 46.4 °F 30.1 in North 3.8 mph 8.1 mph 75 % 0 in
18:04 52.5 °F 44.6 °F 30.1 in North 3.6 mph 7.8 mph 76 % 0 in
18:09 52.7 °F 46.4 °F 30.1 in NNW 4.9 mph 7.4 mph 76 % 0 in
18:14 52.9 °F 46.4 °F 30.1 in NW 8.5 mph 8.7 mph 77 % 0 in
18:19 53.1 °F 46.4 °F 30.1 in NNW 2.9 mph 8.7 mph 77 % 0 in
18:24 53.1 °F 46.4 °F 30.1 in NNE 2.9 mph 7.4 mph 78 % 0 in
18:29 53.1 °F 46.4 °F 30.1 in North 2.9 mph 8.1 mph 78 % 0 in
18:34 52.9 °F 46.4 °F 30.1 in NW 1.3 mph 8.1 mph 78 % 0 in
18:39 52.9 °F 46.4 °F 30.1 in NNW 3.4 mph 7.8 mph 78 % 0 in
18:44 52.7 °F 46.4 °F 30.1 in WNW 2.9 mph 7.8 mph 78 % 0 in
18:49 52.5 °F 46.4 °F 30.1 in North 3.4 mph 7.4 mph 77 % 0 in
18:54 52.5 °F 46.4 °F 30.1 in North 2.9 mph 7.4 mph 77 % 0 in
19:00 52.5 °F 44.6 °F 30.1 in NNW 3.8 mph 8.1 mph 76 % 0 in
19:05 52.5 °F 44.6 °F 30.1 in NNE 5.6 mph 8.5 mph 75 % 0 in
19:10 52.7 °F 46.4 °F 30.1 in NW 2.5 mph 8.5 mph 75 % 0 in
19:15 52.7 °F 46.4 °F 30.1 in North 2.5 mph 7.8 mph 75 % 0 in
19:20 52.7 °F 46.4 °F 30.1 in NNW 6 mph 10.1 mph 75 % 0 in
19:25 52.5 °F 44.6 °F 30.1 in NNW 6 mph 10.1 mph 75 % 0 in
19:30 52.3 °F 44.6 °F 30.1 in North 6 mph 8.7 mph 75 % 0 in
19:35 52.3 °F 44.6 °F 30.1 in North 3.6 mph 8.7 mph 76 % 0 in
19:40 52.2 °F 44.6 °F 30.1 in North 3.6 mph 8.5 mph 76 % 0 in
19:45 52 °F 44.6 °F 30.1 in NW 3.1 mph 11 mph 76 % 0 in
19:50 51.8 °F 44.6 °F 30.1 in NNW 4 mph 11 mph 76 % 0 in
19:55 51.6 °F 44.6 °F 30.1 in NNE 5.4 mph 9.6 mph 77 % 0 in
20:00 51.4 °F 44.6 °F 30.1 in NNW 6.9 mph 9.6 mph 77 % 0 in
20:05 51.4 °F 44.6 °F 30.1 in North 6.3 mph 9.2 mph 78 % 0 in
20:10 51.4 °F 44.6 °F 30.1 in North 4.9 mph 9.8 mph 77 % 0 in
20:15 51.3 °F 44.6 °F 30.1 in NNW 6.5 mph 10.3 mph 78 % 0 in
20:20 51.3 °F 44.6 °F 30.1 in North 2.9 mph 10.3 mph 78 % 0 in
20:25 51.3 °F 44.6 °F 30.1 in West 4.9 mph 8.7 mph 78 % 0 in
20:30 50.9 °F 44.6 °F 30.1 in North 5.4 mph 8.7 mph 79 % 0 in
20:35 50.9 °F 46.4 °F 30.1 in NNW 4.3 mph 8.7 mph 80 % 0 in
20:40 50.7 °F 44.6 °F 30.1 in North 3.4 mph 8.1 mph 80 % 0 in
20:45 50.7 °F 44.6 °F 30.1 in NNW 3.1 mph 8.1 mph 80 % 0 in
20:50 50.5 °F 44.6 °F 30.1 in NNW 7.6 mph 7.6 mph 80 % 0 in
20:55 50.5 °F 44.6 °F 30.1 in NNE 3.6 mph 7.6 mph 81 % 0 in
21:01 50.4 °F 44.6 °F 30.1 in North 6.5 mph 8.7 mph 81 % 0 in
21:06 50.4 °F 44.6 °F 30.1 in NNW 4.9 mph 8.7 mph 81 % 0 in
21:11 50.4 °F 46.4 °F 30.1 in NW 6.5 mph 8.1 mph 82 % 0 in
21:16 50.2 °F 44.6 °F 30.1 in North 8.1 mph 8.7 mph 82 % 0 in
21:21 50.2 °F 44.6 °F 30.1 in NNW 5.4 mph 8.7 mph 82 % 0 in
21:26 50.2 °F 44.6 °F 30.1 in WNW 3.4 mph 8.1 mph 82 % 0 in
21:31 50.2 °F 44.6 °F 30.1 in NNW 5.4 mph 8.1 mph 82 % 0 in
21:36 50.2 °F 44.6 °F 30.1 in North 2.9 mph 7.2 mph 82 % 0 in
21:41 50 °F 44.6 °F 30.1 in North 2.9 mph 6 mph 82 % 0 in
21:46 50 °F 44.6 °F 30.1 in NNW 2.5 mph 6.5 mph 82 % 0 in
21:51 50 °F 44.6 °F 30.2 in NNW 4.3 mph 6.5 mph 82 % 0 in
21:56 50 °F 44.6 °F 30.2 in WNW 4.7 mph 6.3 mph 83 % 0 in
22:01 49.8 °F 44.6 °F 30.2 in North 3.6 mph 7.2 mph 83 % 0 in
22:06 49.8 °F 46.4 °F 30.2 in North 2.9 mph 7.2 mph 84 % 0 in
22:11 49.8 °F 46.4 °F 30.2 in North 4.7 mph 7.6 mph 84 % 0 in
22:16 49.8 °F 46.4 °F 30.2 in NW 1.1 mph 7.6 mph 84 % 0 in
22:21 49.8 °F 46.4 °F 30.2 in North 6.3 mph 8.7 mph 84 % 0 in
22:26 49.8 °F 46.4 °F 30.2 in NNW 3.8 mph 8.7 mph 84 % 0 in
22:31 49.8 °F 46.4 °F 30.2 in North 5.4 mph 8.5 mph 84 % 0 in
22:36 49.6 °F 44.6 °F 30.2 in NW 6.5 mph 7.4 mph 84 % 0 in
22:41 49.6 °F 44.6 °F 30.2 in NNE 6 mph 8.1 mph 84 % 0 in
22:47 49.6 °F 44.6 °F 30.2 in North 5.6 mph 8.1 mph 84 % 0 in
22:49 49.6 °F 44.6 °F 30.2 in NNE 2.9 mph 8.1 mph 84 % 0 in
22:54 49.6 °F 44.6 °F 30.2 in NNW 6.5 mph 6.5 mph 84 % 0 in
22:59 49.8 °F 46.4 °F 30.2 in NW 4.7 mph 6.5 mph 84 % 0 in
23:04 49.8 °F 46.4 °F 30.2 in WNW 4 mph 6 mph 84 % 0 in
23:09 49.8 °F 46.4 °F 30.2 in NW 2.9 mph 6.5 mph 84 % 0 in
23:14 49.8 °F 46.4 °F 30.2 in NNW 4.3 mph 6.5 mph 84 % 0 in
23:19 49.8 °F 44.6 °F 30.2 in NE 7.4 mph 8.9 mph 83 % 0 in
23:24 49.8 °F 44.6 °F 30.2 in NW 4 mph 8.9 mph 83 % 0 in
23:29 50 °F 44.6 °F 30.2 in North 1.6 mph 7.8 mph 82 % 0 in
23:34 50 °F 44.6 °F 30.2 in North 3.8 mph 7.2 mph 82 % 0 in
23:39 50 °F 44.6 °F 30.2 in WNW 4 mph 7.8 mph 82 % 0 in
23:44 50 °F 44.6 °F 30.2 in North 3.1 mph 7.8 mph 81 % 0 in
23:49 50 °F 44.6 °F 30.2 in North 5.8 mph 7.6 mph 81 % 0 in
23:54 50 °F 44.6 °F 30.2 in NW 5.8 mph 7.6 mph 81 % 0 in
Le Gheer Warneton
Courtoisie de Weather Underground - 2.25 mb

Mise a jour : 16-12-17 12:12:11
Généré par Cumulus 1.9.4 (1099)